Regional Weather Roundup
Issued by NWS

Home | Current Version | Previous Version | Text Only | Print | Product List | Glossary Off
Versions: 1 2 3 4 5 6 7 8 9 10 11 12 13 14 15 16 17 18 19 20 21 22 23 24 25 26 27 28 29 30 31 32 33 34 35 36 37 38 39 40 41 42 43 44 45 46 47 48 49 50

711
ASUS43 KMPX 271201
RWRMN
WEATHER ROUNDUP FOR MINNESOTA
NATIONAL WEATHER SERVICE TWIN CITIES/CHANHASSEN MN
700 AM CDT FRI MAY 27 2016


NOTE: "FAIR" INDICATES FEW OR NO CLOUDS BELOW 12,000 FEET WITH NO
SIGNIFICANT WEATHER AND/OR OBSTRUCTIONS TO VISIBILITY. N/A MEANS
CURRENT SKY AND/OR WEATHER CONDITIONS ARE NOT AVAILABLE.

MNZ060>063-068>070-271300-
   Twin Cities Metro

CITY           SKY/WX    TMP DP  RH WIND       PRES   REMARKS
TWIN CITIES    CLOUDY    67  56  67 SE8       29.79S
6HR MIN TEMP:  67; 6HR MAX TEMP:  70; 6HR PCP: TRACE;

ST PAUL        CLOUDY    66  58  75 SE7       29.80S
CRYSTAL        CLOUDY    67  54  63 SE6       29.77F
BLAINE         CLOUDY    66  57  72 E8        29.79F
EDEN PRAIRIE   CLOUDY    67  55  65 SE8       29.77S
6HR MIN TEMP:  64; 6HR MAX TEMP:  69; 6HR PCP: TRACE;

SOUTH ST PAUL  CLOUDY    66  58  73 SE3       29.80S
LAKE ELMO      CLOUDY    64  59  82 E3        29.81F
$$
MNZ001>005-007-008-013>017-022>024-027-028-271300-
   Northwest Minnesota

CITY           SKY/WX    TMP DP  RH WIND       PRES   REMARKS
BEMIDJI        SUNNY     56  53  90 SE6       29.81R
HALLOCK        PTSUNNY   52  50  93 CALM      29.79S FOG
ROSEAU         HAZE      55  50  82 CALM      29.80S VSB<1/4
WARROAD        FOG       54  50  87 CALM      29.82R VSB 1/2
THIEF RVR FALL SUNNY     55  52  88 CALM      29.81R
CROOKSTON      SUNNY     55  55 100 CALM      29.80S
FOSSTON        CLOUDY    55  54  94 E3        29.80F
DETROIT LAKES  SUNNY     57  54  88 E3        29.79F
MOORHEAD       MOSUNNY   57  54  88 CALM      29.78S
PARK RAPIDS    SUNNY     58  51  78 NE3       29.80F
MAHNOMEN       FAIR      55  54  94 E6        29.78F
$$
MNZ006-009>011-018-025>026-271300-
   North Central Minnesota

CITY           SKY/WX    TMP DP  RH WIND       PRES   REMARKS
BAUDETTE       CLOUDY    55  52  89 SE6       29.81R
FLAG ISLAND    CLOUDY    55  54  94 CALM      29.79S
INTL FALLS     SUNNY     52  50  93 SE3       29.82F
6HR MIN TEMP:  44; 6HR MAX TEMP:  53;

WASKISH        CLOUDY    57  55  94 CALM      29.80F
BIG FORK       SUNNY     52  50  93 CALM      29.84R
LONGVILLE      MOSUNNY   50  48  93 CALM      29.82S
GRAND RAPIDS   PTSUNNY   55  51  86 CALM      29.85R
CRANE LAKE     SUNNY     45  45 100 CALM      29.86S FOG
ORR            SUNNY     48  46  93 CALM      29.83R
COOK           SUNNY     48  46  93 CALM      29.86R
WALKER         FAIR      55  51  88 CALM      29.82F
$$
MNZ012-019>021-037-271300-
   Northeast Minnesota

CITY           SKY/WX    TMP DP  RH WIND       PRES   REMARKS
DULUTH         CLOUDY    54  50  86 E5        29.84F
6HR MIN TEMP:  49; 6HR MAX TEMP:  54;

ELY            SUNNY     48  48 100 CALM      29.86R
HIBBING        MOSUNNY   47  47 100 CALM      29.84F
EVELETH        MOSUNNY   50  50 100 CALM      29.86S
DULUTH HARBOR  FOG       45  43  93 NE7       29.86F VSB 1/4
TWO HARBORS    MOSUNNY   52  46  82 N3        29.86R
SILVER BAY     FOG       46  46 100 CALM      29.86R VSB 1/4
GRAND MARAIS     N/A     42  41  96 S8        29.90R
G MARAIS ARPRT MOSUNNY   52  48  87 CALM      29.90R
$$
MNZ029>031-032-039>041-046>048-054>057-064-271300-
   West Central Minnesota

CITY           SKY/WX    TMP DP  RH WIND       PRES   REMARKS
FERGUS FALLS   CLOUDY    61  54  77 NE6       29.74F
WHEATON        MOSUNNY   59  55  88 CALM      29.76F
MORRIS         CLOUDY    63  54  72 NE12      29.72F
ALEXANDRIA     CLOUDY    61  52  72 N8        29.76F
ELBOW LAKE     FAIR      61  53  75 E7        29.76S
WADENA         CLOUDY    52  50  93 N5        29.78F
GLENWOOD       MOSUNNY   59  54  82 N9        29.75F
APPLETON       PTSUNNY   61  52  72 CALM      29.73R
ORTONVILLE     CLOUDY    59  54  82 NW5       29.74S
MADISON        MOSUNNY   57  54  88 NW5       29.73S
WILLMAR        FAIR      63  59  88 E7        29.75S
$$
MNZ033>034-036-042>043-049>051-058-059-271300-
   Central Minnesota

CITY           SKY/WX    TMP DP  RH WIND       PRES   REMARKS
ST CLOUD       CLOUDY    60  55  83 E5        29.77F
6HR MIN TEMP:  57; 6HR MAX TEMP:  64;

SAUK CENTRE    PTSUNNY   60  55  85 N3        29.75F
PAYNESVILLE    MOSUNNY   63  56  77 SE5       29.76S
AITKIN         CLOUDY    55  48  76 CALM      29.79F
PINE RIVER     PTSUNNY   54  52  94 CALM      29.84F
BRAINERD       CLOUDY    59  52  77 CALM      29.79F
STAPLES        PTSUNNY   54  48  82 NE6       29.79F
LITTLE FALLS   CLOUDY    59  52  77 E6        29.77F
LITCHFIELD     SUNNY     64  61  88 SE9       29.77R
BUFFALO        CLOUDY    65  55  67 SE6       29.79S
MAPLE LAKE     CLOUDY    65  58  78 S3        29.78F
HUTCHINSON     MOSUNNY   61  59  94 SE3       29.78S
$$
MNZ037-044-045-052-053-271300-
   East Central Minnesota

CITY           SKY/WX    TMP DP  RH WIND       PRES   REMARKS
PRINCETON        N/A     66  57  72 SE5       29.79R
MORA           CLOUDY    59  52  77 E3        29.81S
CAMBRIDGE      CLOUDY    66  55  68 E7        29.77S
RUSH CITY      CLOUDY    62  55  76 SE9       29.81F
MOOSE LAKE     CLOUDY    52  48  87 NE5       29.81F
HINCKLEY       CLOUDY    57  54  88 CALM      29.82R
CLOQUET        CLOUDY    50  46  87 CALM      29.84S
MCGREGOR       CLOUDY    54  50  87 CALM      29.82F
$$
MNZ071>073-080-081-089-090-097-098-271300-
   Southwest Minnesota

CITY           SKY/WX    TMP DP  RH WIND       PRES   REMARKS
MONTEVIDEO     CLOUDY    63  55  77 CALM      29.74S
GRANITE FALLS  MOSUNNY   64  57  79 S5        29.74S
CANBY          PTSUNNY   61  58  90 NW3       29.74S
MARSHALL       PTSUNNY   62  56  80 S5        29.75R
REDWOOD FALLS  SUNNY     62  57  83 SE10      29.75R
OLIVIA         MOSUNNY   55  54  94 SE8       29.74S
PIPESTONE      MOSUNNY   61  55  82 S7        29.75R
WINDOM         CLOUDY    63  55  77 CALM      29.77S
WORTHINGTON    CLOUDY    60  55  83 SE6       29.78R
JACKSON        PTSUNNY   61  55  82 E3        29.78S
TRACY          CLOUDY    63  56  80 SW5       29.75R
SLAYTON        CLOUDY    57  56  97 S3        29.75S
$$
MNZ065>067-074>077-082>085-091>093-271300-
   South Central Minnesota

CITY           SKY/WX    TMP DP  RH WIND       PRES   REMARKS
MANKATO        CLOUDY    63  55  77 S8        29.78S
NEW ULM        CLOUDY    63  57  82 S8        29.77S
ST JAMES       CLOUDY    57  54  88 SE8       29.78S
FAIRMONT       CLOUDY    63  54  72 SE10      29.77S
GLENCOE        CLOUDY    65  59  79 SE7       29.77S
OWATONNA       CLOUDY    64  55  72 SE8       29.81S
WASECA         LGT RAIN  63  54  72 SE9       29.81R
ALBERT LEA     CLOUDY    64  55  72 SE9       29.81R
$$
MNZ078>079-086>088-094>096-271300-
   Southeast Minnesota

CITY           SKY/WX    TMP DP  RH WIND       PRES   REMARKS
ROCHESTER      CLOUDY    62  60  93 SE9       29.85R
6HR MIN TEMP:  61; 6HR MAX TEMP:  65; 6HR PCP:  0.02;

STANTON        CLOUDY    67  55  66 S9        29.79S
DODGE CENTER   CLOUDY    64  57  77 S5        29.82F
WINONA         DRIZZLE   63  59  88 CALM      29.86R
AUSTIN         CLOUDY    63  57  82 S5        29.82S
PRESTON        LGT RAIN  61  57  87 E6        29.84F
$$
ABBREVIATIONS USED IN REMARKS
   TC - TEMPERATURES IN CELSIUS
  WCI - WIND CHILL INDEX
   HX - HEAT INDEX
  VSB - VISIBILITY
$$




USA.gov is the U.S. government's official web portal to all federal, state and local government web resources and services.